Weather History for Resia Pass, Italy

Change the Weather History Date:

Friday, November 2, 2012

  Actual Average Record
Temperature  
Mean Temperature 40 °F -  
Max Temperature 46 °F 47 °F 59 °F (1996)
Min Temperature 33 °F 32 °F 24 °F (2000)
Degree Days  
Heating Degree Days 26    
Moisture  
Dew Point 30 °F    
Average Humidity 70    
Maximum Humidity 81    
Minimum Humidity 46    
Precipitation  
Precipitation 0.00 in - - ()
Sea Level Pressure  
Sea Level Pressure 29.68 in    
Wind  
Wind Speed 5 mph ()    
Max Wind Speed 10 mph    
Max Gust Speed -    
Visibility 5.3 miles    
Events      
Averages and records for this station are not official NWS values.
T = Trace of Precipitation, MM = Missing Value Source: Averaged Metar Reports

Daily Weather History Graph

Daily Weather History Graph

Search for Another Location

Airport:

Trip Planner

Search our weather history database for the weather conditions in past years. The results will help you decide how hot, cold, wet, or windy it might be!

Date:

Astronomy

Nov. 02, 2012 Rise Set
Actual Time 7:02 AM CET 5:00 PM CET
Civil Twilight 6:30 AM CET 5:32 PM CET
Nautical Twilight 5:54 AM CET 6:08 PM CET
Astronomical Twilight 5:19 AM CET 6:43 PM CET
Moon 7:25 PM CET (11/2) 10:17 AM CET (11/2)
Length of Visible Light 11h 01m
Length of Day
9h 58m
Waning Gibbous, 89% of the Moon is Illuminated
Nov 2
Waning Gibbous
Nov 7
Last Quarter
Nov 13
New
Nov 20
First Quarter
Nov 28
Full

Hourly Weather History & Observations

Time (CET) Temp. Windchill Dew Point Humidity Pressure Visibility Wind Dir Wind Speed Gust Speed Precip Events Conditions
12:55 AM 35.6 °F 30.7 °F 28.4 °F 75% 29.50 in 0.6 mi South 5.8 mph - N/A   Overcast
1:55 AM 35.6 °F 31.7 °F 28.4 °F 75% 29.50 in 0.6 mi South 4.6 mph - N/A   Overcast
2:55 AM 35.6 °F 30.7 °F 28.4 °F 75% 29.50 in 0.6 mi South 5.8 mph - N/A   Overcast
7:55 AM 33.8 °F - 26.6 °F 75% 29.59 in 6.2 mi Calm Calm - N/A   Scattered Clouds
8:55 AM 33.8 °F 30.8 °F 26.6 °F 75% 29.62 in 6.2 mi NNE 3.5 mph - N/A   Scattered Clouds
9:55 AM 41.0 °F 38.0 °F 32.0 °F 70% 29.62 in 6.2 mi NNW 4.6 mph - N/A   Scattered Clouds
10:55 AM 46.4 °F 45.2 °F 28.4 °F 50% 29.65 in 6.2 mi North 3.5 mph - N/A   Scattered Clouds
11:55 AM 44.6 °F 40.7 °F 24.8 °F 46% 29.68 in 6.2 mi SSW 6.9 mph - N/A   Scattered Clouds
12:55 PM 39.2 °F 33.6 °F 24.8 °F 56% 29.71 in 6.2 mi South 8.1 mph - N/A   Scattered Clouds
1:55 PM 44.6 °F 40.2 °F 30.2 °F 57% 29.68 in 6.2 mi South 8.1 mph - N/A   Scattered Clouds
2:55 PM 42.8 °F 37.0 °F 30.2 °F 61% 29.71 in 6.2 mi South 10.4 mph - N/A   Scattered Clouds
3:55 PM 39.2 °F 33.0 °F 30.2 °F 70% 29.71 in 6.2 mi SSE 9.2 mph - N/A   Scattered Clouds
5:55 PM 39.2 °F 34.2 °F 33.8 °F 81% 29.74 in 6.2 mi SE 6.9 mph - N/A   Mostly Cloudy
6:55 PM 39.2 °F 33.6 °F 32.0 °F 75% 29.77 in 6.2 mi SSE 8.1 mph - N/A   Overcast
7:55 PM 37.4 °F 31.4 °F 32.0 °F 81% 29.80 in 6.2 mi South 8.1 mph - N/A   Mostly Cloudy
8:55 PM 37.4 °F 30.3 °F 32.0 °F 81% 29.80 in 6.2 mi SSE 10.4 mph - N/A   Mostly Cloudy
9:55 PM 37.4 °F 30.3 °F 30.2 °F 75% 29.80 in 6.2 mi SSE 10.4 mph - N/A   Mostly Cloudy
10:55 PM 37.4 °F 30.3 °F 30.2 °F 75% 29.80 in 6.2 mi SSE 10.4 mph - N/A   Mostly Cloudy
11:55 PM 37.4 °F 31.4 °F 32.0 °F 81% 29.83 in 6.2 mi SSE 8.1 mph - N/A   Mostly Cloudy